Tracking 31032 objects as of 13-Jul-2025
HD Live streaming from Space Station
objects crossing your sky now

CZ-6A DEB

Track CZ-6A DEB now!
10-day predictions


NORAD ID: 54308
Int'l Code: 2022-151BB
Perigee: 611.7 km
Apogee: 696.6 km
Inclination: 98.7 °
Period: 97.7 minutes
Semi major axis: 7025 km
RCS: Unknown
Launch date: November 11, 2022
Source: People's Republic of China (PRC)
Launch site: Taiyaun Space Center, China (TSC)

Note: This is SATELLITE DEBRIS
Your satellite tracking list
Your tracking list is empty




NASA's NSSDC Master Catalog

Two Line Element Set (TLE):
1 54308U 22151BB  25194.07502696  .00015336  00000-0  22485-2 0  9998
2 54308  98.6538 242.2650 0060424 244.2597 115.2365 14.74418533140470
Source of the keplerian elements: AFSPC